Weather Roundup
Issued by NWS Chicago, IL

Home | Current Version | Previous Version | Text Only | Print | Product List | Glossary Off
Versions: 1 2 3 4 5 6 7 8 9 10 11 12 13 14 15 16 17 18 19 20 21 22 23 24 25 26 27 28 29 30 31 32 33 34 35 36 37 38 39 40 41 42 43 44 45 46 47 48 49 50

000
NZUS59 KLOT 211610
HRRLOT

CHICAGO AREA WEATHER ROUNDUP
NATIONAL WEATHER SERVICE CHICAGO/ROMEOVILLE IL
1100 AM CDT TUE OCT 21 2014

NOTE: "FAIR" INDICATES FEW OR NO CLOUDS BELOW 12,000 FEET WITH NO
SIGNIFICANT WEATHER AND/OR OBSTRUCTIONS TO VISIBILITY.

* THESE STATIONS ARE NOT UNDER NWS QUALITY CONTROL. THEY ALSO MAY NOT
  REPORT WEATHER SUCH AS PRECIPITATION OR FOG.

ILZ005-006-012>014-019>023-211700-
NORTHEAST ILLINOIS

CITY           SKY/WX    TMP DP  RH WIND       PRES   REMARKS
OHARE          PTSUNNY   50  40  68 N15       30.17R
MIDWAY         CLOUDY    51  42  71 N15       30.16R
AURORA         CLOUDY    51  39  63 N12       30.18R
LANSING*       CLOUDY    50  43  75 N10G18    30.15R
JOLIET*          N/A     52  39  61 N9        30.17R
WAUKEGAN       CLOUDY    49  40  71 N12G23    30.17R
DUPAGE AIRPORT CLOUDY    52  40  63 N12       30.17R
WHEELING       CLOUDY    51  40  65 N13       30.18R
KANKAKEE*      CLOUDY    52  39  61 N7        30.16S
MORRIS*        PTSUNNY   54  40  59 N6        30.16S
LEWIS AIRPORT* CLOUDY    51  39  64 N9        30.17R
NORTHERLY IS     N/A     50  43  77 NW17        N/A
$$

WIZ051-052-058>065-066-070>072-211700-
SOUTHEAST WISCONSIN

CITY           SKY/WX    TMP DP  RH WIND       PRES   REMARKS
MILWAUKEE      CLOUDY    48  39  71 N10       30.20R
KENOSHA*       CLOUDY    50  40  68 N12       30.19R
RACINE*        CLOUDY    48  40  73 N15G23    30.20R
BURLINGTON     CLOUDY    47  37  68 N12       30.19S
WAUKESHA       CLOUDY    46  37  71 N10       30.21R
WEST BEND      CLOUDY    45  36  70 N7        30.21R
$$

INZ001>003-010>013-019-020-211700-
NORTHWEST INDIANA

CITY           SKY/WX    TMP DP  RH WIND       PRES   REMARKS
GARY*          CLOUDY    52  45  76 N14G28    30.15R
MICHIGAN CITY* NOT AVBL
RENSSELAER*    NOT AVBL
VALPARAISO     LGT RAIN  50  47  89 N9        30.13R
$$

LMZ740>746-211700-
SOUTHERN LAKE MICHIGAN

STATION/POSITION TIME  SKY/WX   TEMP WIND        PRES    VSBY
                                AIR  DIR/SP/G
                 (UTC)          (F)  (DEG/KT/KT) (MB)    (MI)
HARRISON CRIB    1600            49  350/ 24/ 28   N/A
BURNHAM HARBOR   1600            50  340/ 19/ 19   N/A
CALUMET HARBOR   1600            49  320/ 11/ 17 1019.9R
BURNS HARBOR     NOT AVBL
MICHIGAN CITY    1600            51  340/ 24/ 27   N/A
$$

ABBREVIATIONS USED IN REMARKS
   TC - TEMPERATURE IN CELSIUS
  WCI - WIND CHILL INDEX
   HX - HEAT INDEX
  VSB - VISIBILITY
$$


USA.gov is the U.S. government's official web portal to all federal, state and local government web resources and services.